Miscellaneous Local Product
Issued by NWS North Platte, NE

Home | Current Version | Previous Version | Text Only | Print | Product List | Glossary On
Versions: 1 2 3 4 5 6 7 8 9 10 11 12 13 14 15 16 17 18 19 20 21 22 23 24 25 26 27 28 29 30 31 32 33 34 35 36 37 38 39 40 41 42 43 44 45 46 47 48 49 50
000
AXUS43 KLBF 191610
MISLBF


WESTERN AND NORTH CENTRAL NEBRASKA HOURLY WEATHER ROUNDUP
NATIONAL WEATHER SERVICE NORTH PLATTE NE
1000 AM CST THU JAN 19 2017

NOTE: "FAIR" INDICATES FEW OR NO CLOUDS BELOW 12,000 FEET WITH NO
SIGNIFICANT WEATHER AND/OR OBSTRUCTIONS TO VISIBILITY.

NOTE: STATIONS NOT REPORTING VARIABLES SUCH AS SKY/WEATHER OR
PRESSURE ARE PROVIDED BY RAWS AND APRS NETWORKS AND ARE NOT UNDER
NATIONAL WEATHER SERVICE QUALITY CONTROL.

...OBSERVATIONS IN AND NEAR THE EASTERN PANHANDLE OF NEBRASKA...

CITY           SKY/WX    TMP DP  RH WIND       PRES   REMARKS
PINE RIDGE     CLOUDY    35  21  56 W5        29.53S WCI  31
CHADRON        CLOUDY    25  16  68 W5        29.56S WCI  19
ALLIANCE       CLOUDY    27  22  81 CALM      29.57S
SIDNEY         CLOUDY    33  24  69 W6        29.60S WCI  28
CRESCENT LAKE    N/A     28  24  84 SW3         N/A
$$

...OBSERVATIONS IN NORTHERN NEBRASKA AND FAR SOUTHERN SOUTH DAKOTA...

CITY           SKY/WX    TMP DP  RH WIND       PRES   REMARKS
WINNER         FAIR      38  30  73 S15       29.56S WCI  29
VALENTINE      SUNNY     34  25  69 SW9       29.57S WCI  27
THEDFORD       FOG       31  31  99 SW3       29.61S VSB 3/4
AINSWORTH      FOG       34  34 100 S10G17    29.58S VSB 1/2 WCI  26
O`NEILL        CLOUDY    39  39  99 S14       29.64F FOG     WCI  31
ORD            FOG       37  35  92 SE5       29.65S VSB 1/4 WCI  33
BROKEN BOW     CLOUDY    39  38  96 S13       29.63F FOG     WCI  31
VALENTINE NWR    N/A     29  26  89 SW5         N/A  WCI  24
BUTTE            N/A     35  34  97 SE12        N/A  WCI  27
HALSEY           N/A     50  28  43 S5G12       N/A
SARGENT          N/A     38  29  69 CALM        N/A
CHAMBERS         N/A     39  38  99 S5          N/A
EWING            N/A     38  37  97 S5          N/A  WCI  34
$$

...OBSERVATIONS IN SOUTHWEST NEBRASKA AND FAR NORTHEAST COLORADO...

CITY           SKY/WX    TMP DP  RH WIND       PRES   REMARKS
HOLYOKE        FAIR      34  27  75 NW7       29.61S WCI  28
IMPERIAL       SUNNY     29  23  78 CALM      29.63R
OGALLALA       SUNNY     26  24  89 CALM      29.62F
NORTH PLATTE   FOG       33  33 100 CALM      29.64R VSB 1/4
MCCOOK         FOG       36  36 100 CALM      29.64R VSB 1/4
LEXINGTON      FOG       38  37  96 CALM      29.64S VSB 1/4
STAPLETON        N/A     32  32  99 CALM        N/A
GOTHENBURG       N/A     38  37  98 SE3         N/A
CALLAWAY         N/A     37  36  97 S13         N/A  WCI  29
$$

...OBSERVATIONS IN CENTRAL LINCOLN COUNTY AREA...

CITY           SKY/WX    TMP DP  RH WIND       PRES   REMARKS
N.P. AIRPORT   FOG       33  33 100 CALM      29.64R VSB 1/4
N.P. DOWNTOWN    N/A     32  28  84 CALM        N/A
N.P. SOUTHEAST   N/A     31  30  96 CALM        N/A
N.P. HILLCREST   N/A     31  31  99 CALM        N/A
$$

...SOME OBSERVATIONS FROM AROUND THE REGION...

CITY           SKY/WX    TMP DP  RH WIND       PRES   REMARKS
LARAMIE        CLOUDY    19  10  68 NE6       29.67S WCI  11
CHEYENNE       CLOUDY    44  14  29 W8        29.59S
DENVER         CLOUDY    38  22  52 SE6       29.61R WCI  33
AKRON          CLOUDY    32  21  64 W12       29.61R WCI  23
SCOTTSBLUFF    CLOUDY    32  24  72 CALM      29.59S
RAPID CITY     CLOUDY    34  19  54 NW7       29.49S WCI  28
BISMARCK       CLOUDY    15  10  80 NE5       29.53S WCI   8
PIERRE         CLOUDY    12  11  95 CALM      29.55S
SIOUX FALLS    FOG       35  35 100 S12       29.71S VSB 1/4 WCI  27
OMAHA          CLOUDY    37  34  89 SE3       29.79S FOG
GRAND ISLAND   FOG       37  37 100 S7        29.69F VSB 1   WCI  32
KANSAS CITY    DRZL/FOG  45  43  93 S7        29.80S VSB 1/4
WICHITA        CLOUDY    47  45  93 SE16G24   29.70F FOG
OKLAHOMA CITY  FOG       47  46  97 S15G22    29.72F VSB 1
DALLAS         CLOUDY    51  50  96 S13       29.82S
AMARILLO       SUNNY     43  29  57 W13       29.62R
DODGE CITY     CLOUDY    42  40  92 S10       29.62F
HAYS           CLOUDY    45  42  89 SE12      29.66F
GOODLAND       FOG       28  28 100 W6        29.61R VSB 1/4 WCI  22
$$




USA.gov is the U.S. government's official web portal to all federal, state and local government web resources and services.